Погода в Земцах

Россия / Тверская область     56°14′42″N   32°22′34″E
темп.,
°C
ветер,
м/с
пор.,
м/с
влажн.,
%
обл.,
%
осадки,
мм/ч
давл.,
гПа
погр.,
м
21 июня, пн
пн2100:00+21юз238343 0.3 101964
03:00+19ю229566 1.1 102019
06:00+19ююв129219 0.0 102082
09:00+22юв2378100 0.6 1020278
12:00+28юв344947 0.0 10191228
15:00+30юв343477 0.0 10181691
18:00+29юв234267 0.0 10181251
21:00+22вюв377377 0.0 1018135
22 июня, вт
вт2200:00+19юв278245 0.0 1019134
03:00+18юв27958 0.0 1019133
06:00+20юв269153 0.0 1019166
09:00+26юв46635 0.0 1018647
12:00+29ююв5737100 0.0 10181338
15:00+31ююв573184 0.0 10181735
18:00+30ююв46396 0.0 10171360
21:00+23ююв26685 0.0 101893
23 июня, ср
ср2300:00+20ююв26834 0.0 1019106
03:00+18ююв26940 0.0 1019114
06:00+20ююв25900 0.0 1020138
09:00+26ююв35643 0.0 1019621
12:00+31ю463714 0.0 10191694
15:00+33ю46314 0.0 10182473
18:00+32ююз35372 0.0 10181887
21:00+24ю22675 0.0 101828
24 июня, чт
чт2400:00+21ю227738 0.0 101928
03:00+20ююв228754 0.0 101937
06:00+21ю248513 0.0 1019122
09:00+27ю34615 0.0 1018610
12:00+31ю34424 0.0 10181686
15:00+33ю33325 0.0 10172784
18:00+29ююз354799 0.0 1015838
21:00+18с41193100 4.3 1019449
25 июня, пт
пт2500:00+18юв2696100 1.9 1017116
03:00+17вюв119697 2.9 101728
06:00+19юв119349 0.7 101766
09:00+24юв127237 0.7 1016352
12:00+30юв224988 0.0 10151171
15:00+30ююв244698 0.0 10141157
18:00+20юв4990100 3.2 1014175
21:00+19св41096100 7.1 1016306